Location: Festilli
(46.4000°N, 11.6667°E)
Time: 14:04:25
(UTC+00:00)

SL-16 R/B - Pass Details

Date: 03 March 2021
Orbit: 843 x 846 km, 71.0° (Epoch: 14 April)

Event Time Altitude Azimuth Distance (km) Brightness Sun altitude
Rises 17:46:31 0° 203° (SSW) 3,388 5.7 -8.4°
Reaches altitude 10° 17:48:57 10° 203° (SSW) 2,457 4.9 -8.8°
Maximum altitude 17:54:36 86° 116° (ESE) 852 2.2 -9.8°
Drops below altitude 10° 18:00:18 10° 27° (NNE) 2,476 4.4 -10.8°
Sets 18:02:45 0° 28° (NNE) 3,415 5.1 -11.2°
